Weather History for KDGW - March, 2014

Change the Weather History Date:

Monday, March 24, 2014

  Actual Average Record
Temperature  
Mean Temperature 31 °F 38 °F  
Max Temperature 41 °F 52 °F 71 °F (2004)
Min Temperature 20 °F 24 °F 9 °F (2013)
Degree Days  
Heating Degree Days 34 27  
Month to date heating degree days 734 735  
Since 1 July heating degree days 6324 6135  
Cooling Degree Days 0 0  
Month to date cooling degree days 0 0  
Year to date cooling degree days 0 0  
Moisture  
Dew Point 21 °F    
Average Humidity 70    
Maximum Humidity 92    
Minimum Humidity 48    
Precipitation  
Precipitation T in 0.04 in 0.17 in (2007)
Month to date precipitation 0.09 0.61  
Year to date precipitation 1.55 1.40  
Sea Level Pressure  
Sea Level Pressure 30.28 in    
Wind  
Wind Speed 9 mph (WNW)    
Max Wind Speed 23 mph    
Max Gust Speed 30 mph    
Visibility 8 miles    
Events Snow    
T = Trace of Precipitation, MM = Missing Value Source: NWS Daily Summary

Daily Weather History Graph

Daily Weather History Graph

Search for Another Location

Airport or City:

Trip Planner

Search our weather history database for the weather conditions in past years. The results will help you decide how hot, cold, wet, or windy it might be!

Date:

Astronomy

Mar. 24, 2014 Rise Set
Actual Time 6:57 AM MDT 7:18 PM MDT
Civil Twilight 6:29 AM MDT 7:46 PM MDT
Nautical Twilight 5:56 AM MDT 8:20 PM MDT
Astronomical Twilight 5:22 AM MDT 8:54 PM MDT
Moon 2:37 AM MDT (3/24) 12:39 PM MDT (3/24)
Length of Visible Light 13h 17m
Length of Day
12h 20m
Last Quarter, 42% of the Moon is Illuminated
Mar 24
Last Quarter
Mar 30
New
Apr 7
First Quarter
Apr 15
Full
Apr 22
Last Quarter

Hourly Weather History & Observations

Time (MDT) Temp. Windchill Dew Point Humidity Pressure Visibility Wind Dir Wind Speed Gust Speed Precip Events Conditions
12:35 AM 27.0 °F 23.0 °F 21.0 °F 78% 30.18 in 2.5 mi WNW 3.5 mph - 0.00 in Snow Light Snow
12:43 AM 27.0 °F 20.5 °F 21.0 °F 78% 30.18 in 3.0 mi WNW 5.8 mph - 0.00 in Snow Light Snow
12:53 AM 26.1 °F 19.4 °F 21.0 °F 81% 30.26 in 2.0 mi West 5.8 mph - 0.00 in Snow Light Snow
1:40 AM 25.0 °F 18.1 °F 21.9 °F 88% 30.18 in 1.5 mi WSW 5.8 mph - 0.00 in Snow Light Snow
1:53 AM 25.0 °F 20.7 °F 23.0 °F 92% 30.24 in 1.2 mi SSW 3.5 mph - 0.00 in Snow Light Snow
2:38 AM 25.0 °F 18.1 °F 23.0 °F 92% 30.17 in 2.0 mi SW 5.8 mph - 0.00 in Snow Light Snow
2:53 AM 25.0 °F 20.7 °F 21.9 °F 88% 30.21 in 7.0 mi SW 3.5 mph - 0.00 in Snow Light Snow
3:53 AM 25.0 °F 19.3 °F 23.0 °F 92% 30.22 in 8.0 mi West 4.6 mph - 0.00 in Snow Light Snow
4:53 AM 25.0 °F 17.1 °F 21.9 °F 88% 30.23 in 5.0 mi West 6.9 mph - 0.00 in Snow Light Snow
5:53 AM 24.1 °F 15.2 °F 21.0 °F 88% 30.27 in 10.0 mi West 8.1 mph - 0.00 in   Overcast
6:53 AM 19.9 °F 13.4 °F 18.0 °F 92% 30.32 in 10.0 mi NW 4.6 mph - N/A   Clear
7:44 AM 23.0 °F 14.7 °F 19.9 °F 88% 30.24 in 10.0 mi North 6.9 mph - N/A   Mostly Cloudy
7:53 AM 23.0 °F 14.7 °F 19.9 °F 88% 30.35 in 10.0 mi North 6.9 mph - N/A   Mostly Cloudy
8:23 AM 26.1 °F 19.4 °F 19.9 °F 78% 30.25 in 10.0 mi NNW 5.8 mph - N/A   Mostly Cloudy
8:51 AM 24.8 °F 17.9 °F 19.4 °F 80% 30.25 in 10.0 mi West 5.8 mph - N/A   Overcast
8:53 AM 24.1 °F 17.0 °F 19.0 °F 81% 30.36 in 10.0 mi WNW 5.8 mph - N/A   Overcast
9:53 AM 27.0 °F 23.0 °F 21.0 °F 78% 30.36 in 10.0 mi West 3.5 mph - N/A   Overcast
10:53 AM 28.0 °F 20.0 °F 23.0 °F 81% 30.36 in 7.0 mi NW 8.1 mph - 0.00 in   Overcast
11:53 AM 30.9 °F 23.5 °F 24.1 °F 76% 30.35 in 5.0 mi WNW 8.1 mph - 0.00 in Snow Light Snow
12:37 PM 34.0 °F 25.5 °F 25.0 °F 70% 30.25 in 10.0 mi West 11.5 mph - 0.00 in   Overcast
12:53 PM 33.1 °F 25.5 °F 26.1 °F 75% 30.33 in 2.0 mi West 9.2 mph - 0.00 in Snow Light Snow
1:04 PM 34.0 °F 24.6 °F 25.0 °F 70% 30.23 in 8.0 mi WNW 13.8 mph - 0.00 in Snow Light Snow
1:22 PM 36.0 °F 26.0 °F 25.0 °F 64% 30.22 in 10.0 mi WNW 17.3 mph - 0.00 in   Scattered Clouds
1:53 PM 37.0 °F 27.7 °F 24.1 °F 59% 30.30 in 10.0 mi WNW 16.1 mph - 0.00 in   Partly Cloudy
2:53 PM 39.9 °F 30.8 °F 23.0 °F 51% 30.25 in 10.0 mi West 18.4 mph - N/A   Scattered Clouds
3:53 PM 39.9 °F 30.5 °F 21.0 °F 47% 30.25 in 10.0 mi WNW 19.6 mph - N/A   Partly Cloudy
4:53 PM 39.9 °F 31.8 °F 21.0 °F 47% 30.25 in 10.0 mi WNW 15.0 mph 24.2 mph N/A   Partly Cloudy
5:53 PM 36.0 °F 26.3 °F 23.0 °F 59% 30.28 in 10.0 mi NNE 16.1 mph 24.2 mph N/A   Clear
6:00 PM 34.0 °F 23.8 °F 23.0 °F 64% 30.19 in 10.0 mi NNE 16.1 mph - N/A   Clear
6:53 PM 32.0 °F 23.0 °F 21.9 °F 66% 30.32 in 10.0 mi NNE 11.5 mph - N/A   Clear
7:53 PM 28.9 °F 18.2 °F 19.9 °F 69% 30.35 in 10.0 mi NNE 13.8 mph - N/A   Overcast
8:53 PM 28.0 °F 16.5 °F 18.0 °F 66% 30.39 in 10.0 mi North 15.0 mph - N/A   Overcast
9:53 PM 26.1 °F 16.2 °F 17.1 °F 69% 30.40 in 10.0 mi North 10.4 mph - N/A   Overcast
10:53 PM 25.0 °F 18.1 °F 17.1 °F 72% 30.40 in 10.0 mi North 5.8 mph - N/A   Clear
11:48 PM 24.8 °F 20.5 °F 17.6 °F 74% 30.30 in 10.0 mi NW 3.5 mph - N/A   Mostly Cloudy
11:53 PM 25.0 °F - 18.0 °F 75% 30.41 in 10.0 mi Calm Calm - N/A   Mostly Cloudy